Location: Unspecified
(0.0000°N, 0.0000°E)
Time: 05:35:49
(UTC+00:00)

Vanguard 2 Rocket - Visible Passes

Search period start: 21 May 2026 00:00
Search period end: 31 May 2026 00:00
Orbit: 553 x 3286 km, 32.9° (Epoch: 20 May)

Date Brightness Start Highest point End Pass type
(mag) Time Alt. Az. Time Alt. Az. Time Alt. Az.
21 May 7.0 04:45:05 22° SSW 04:47:35 46° SE 04:53:09 10° ENE visible
21 May 9.6 18:19:34 10° WNW 18:38:07 55° SW 18:50:21 10° SE visible
21 May 9.9 20:46:35 10° WSW 20:53:52 16° SW 20:56:18 15° SSW visible
22 May 8.4 03:43:56 17° SE 03:43:56 17° SE 03:46:07 10° E visible
22 May 9.7 19:33:42 10° W 19:47:14 28° SW 19:55:03 15° S visible
23 May 6.1 04:48:09 28° SW 04:50:20 89° NNW 04:55:57 10° NE visible
23 May 9.9 18:22:41 10° WNW 18:40:19 43° SW 18:52:34 10° SSE visible
23 May 10.1 20:53:07 10° SW 20:57:01 12° SSW 20:59:07 11° SSW visible
24 May 7.7 03:46:59 28° ESE 03:46:59 28° ESE 03:49:53 10° ENE visible
24 May 9.9 19:38:19 10° WSW 19:49:57 22° SW 19:57:50 12° S visible
25 May 6.8 04:51:09 24° W 04:53:14 43° NNW 04:58:19 10° NE visible
25 May 10.0 18:26:19 10° W 18:42:42 34° SW 18:54:39 10° SSE visible
26 May 7.2 03:49:58 39° ENE 03:49:58 39° ENE 03:52:57 10° ENE visible
26 May 10.1 19:43:40 10° WSW 19:53:01 17° SSW 20:00:25 10° S visible
27 May 7.7 04:54:07 15° WNW 04:56:17 22° NNW 05:00:10 10° NNE visible
27 May 10.1 18:30:35 10° W 18:45:21 27° SSW 18:56:40 10° SSE visible
28 May 7.5 03:52:53 31° NNE 03:52:53 31° NNE 03:55:32 10° NE visible
28 May 10.2 19:49:39 10° SW 19:56:30 14° SSW 20:02:15 10° S visible
29 May 8.4 04:58:13 10° NW 04:59:27 11° NNW 05:00:45 10° N visible
29 May 10.2 18:35:28 10° WSW 18:48:23 22° SSW 18:58:42 10° SSE visible
30 May 8.1 03:55:43 18° N 03:55:43 18° N 03:57:34 10° NNE visible
30 May 10.2 19:55:52 10° SW 20:00:20 12° SSW 20:04:17 10° S visible
